Regional Weather Roundup
Issued by NWS

Home | Current Version | Previous Version | Text Only | Print | Product List | Glossary On
Versions: 1 2 3 4 5 6 7 8 9 10 11 12 13 14 15 16 17 18 19 20 21 22 23 24 25 26 27 28 29 30 31 32 33 34 35 36 37 38 39 40 41 42 43 44 45 46 47 48 49 50
000
ASUS43 KLSX 010410
RWRMO

WEATHER SUMMARY FOR MISSOURI
NATIONAL WEATHER SERVICE SPRINGFIELD MO
1100 PM CDT THU JUN 30 2016

NOTE: "FAIR" INDICATES FEW OR NO CLOUDS BELOW 12,000 FEET WITH NO
       SIGNIFICANT WEATHER AND/OR OBSTRUCTIONS TO VISIBILITY.
       CURRENT SKY AND/OR WEATHER CONDITIONS ARE NOT AVAILABLE FOR
       CHILLICOTHE AND FARMINGTON.

MOZ001>031-035>038-043-044-053-054-010500-
...NORTHERN AND WESTERN MISSOURI...

CITY           SKY/WX    TMP DP  RH WIND       PRES   REMARKS
KANSAS CTY INT PTCLDY    73  64  73 N3        30.00R
KANSAS C DTWN  PTCLDY    76  66  71 E5        29.99R
LEE`S SUMMIT   CLOUDY    71  67  87 CALM      30.01R
ST JOSEPH      PTCLDY    72  67  84 N5        30.00R
CHILLICOTHE      N/A     69  66  90 CALM      30.00R
KIRKSVILLE     CLEAR     67  63  87 NW6       29.98R

$$
MOZ066>068-077>081-088>096-101>105-010500-
...SOUTHWEST MISSOURI...

CITY           SKY/WX    TMP DP  RH WIND       PRES   REMARKS
SPRINGFIELD    CLOUDY    69  66  90 S9        30.00S
JOPLIN         PTCLDY    73  69  87 E6        29.99R

$$
MOZ032>034-039>042-045>050-055>058-069>072-010500-
...CENTRAL MISSOURI...

CITY           SKY/WX    TMP DP  RH WIND       PRES   REMARKS
COLUMBIA       MOCLDY    71  63  75 NW9       29.96R
JEFFERSON CITY PTCLDY    72  66  81 W7        29.95R
ROLLA          CLEAR     68  66  93 SW9       29.95R
SEDALIA        PTCLDY    72  67  84 NW8       29.97R
WHITEMAN AFB   CLOUDY    70  70 100 N7        29.96R
OSAGE BEACH    CLEAR     69  67  93 W5        29.98R

$$
MOZ051-052-059>065-010500-
...EAST CENTRAL MISSOURI...

CITY           SKY/WX    TMP DP  RH WIND       PRES   REMARKS
ST LOUIS INTL  CLOUDY    78  68  71 S10       29.92F
SPIRIT OF STL  CLOUDY    75  71  87 S5        29.92R
ST CHARLES     MOCLDY    75  71  87 S5        29.90F

$$
MOZ072>076-082>087-097>100-106>115-010500-
...SOUTH CENTRAL AND SOUTHEAST MISSOURI...

CITY           SKY/WX    TMP DP  RH WIND       PRES   REMARKS
CAPE GIRARDEAU CLOUDY    72  67  84 S3        29.93F
FARMINGTON     CLOUDY    70  69  97 CALM      29.96F
POPLAR BLUFF   CLOUDY    75  72  90 SE3       29.93F
WEST PLAINS    MOCLDY    71  67  87 W8        29.99F

$$



USA.gov is the U.S. government's official web portal to all federal, state and local government web resources and services.